LRI582 RPVS-RPVA

Flight info

Callsign LRI582
Flight time 1h 5m
Altitude 27000
Route PEGMU W17 IOO TR6 BCD TR2 MCT G578 POXOS POXOS2R
Aircraft BE9L/L-SDFG/C

Departure

Time 2026-04-15 14:12
Airport Evelio Javier Airport (RPVS)

Arrival

Time 2026-04-15 15:17
Airport Daniel Z. Romualdez Airport (RPVA)
Time Latitude Longitude Altitude Speed Heading
2026-04-15 13:53 10.76761 121.93341 33 ft 0 kts 96°
2026-04-15 14:09 10.76761 121.93342 33 ft 1 kts 100°
2026-04-15 14:09 10.76739 121.93309 33 ft 12 kts 252°
2026-04-15 14:10 10.76661 121.93246 33 ft 16 kts 182°
2026-04-15 14:10 10.76518 121.93246 38 ft 24 kts 181°
2026-04-15 14:10 10.76347 121.93243 40 ft 22 kts 181°
2026-04-15 14:10 10.76203 121.93235 38 ft 13 kts 184°
2026-04-15 14:11 10.76214 121.93245 38 ft 1 kts
2026-04-15 14:11 10.76277 121.93246 39 ft 34 kts 360°
2026-04-15 14:12 10.76792 121.93246 31 ft 105 kts
2026-04-15 14:12 10.77590 121.93237 320 ft 112 kts
2026-04-15 14:12 10.78449 121.93156 560 ft 135 kts
2026-04-15 14:12 10.79236 121.93491 1095 ft 122 kts 55°
2026-04-15 14:13 10.79415 121.94265 1637 ft 116 kts 102°
2026-04-15 14:13 10.78946 121.94920 2146 ft 120 kts 135°
2026-04-15 14:13 10.78324 121.95471 2632 ft 120 kts 131°
2026-04-15 14:13 10.77698 121.96048 3093 ft 122 kts 131°
2026-04-15 14:14 10.77072 121.96627 3550 ft 124 kts 131°
2026-04-15 14:14 10.76442 121.97216 4000 ft 125 kts 131°
2026-04-15 14:14 10.75833 121.97840 4443 ft 124 kts 122°
2026-04-15 14:14 10.75374 121.98581 4881 ft 124 kts 112°
2026-04-15 14:15 10.75007 121.99367 5304 ft 124 kts 109°
2026-04-15 14:15 10.74688 122.00175 5726 ft 125 kts 107°
2026-04-15 14:15 10.74392 122.01009 6140 ft 126 kts 105°
2026-04-15 14:15 10.74110 122.01852 6530 ft 127 kts 105°
2026-04-15 14:16 10.73835 122.02695 6930 ft 127 kts 102°
2026-04-15 14:16 10.73716 122.03574 7315 ft 127 kts 92°
2026-04-15 14:16 10.73631 122.04466 7699 ft 127 kts 92°
2026-04-15 14:16 10.73552 122.05366 8085 ft 130 kts 92°
2026-04-15 14:17 10.73476 122.06272 8504 ft 130 kts 92°
2026-04-15 14:17 10.73400 122.07181 8926 ft 129 kts 92°
2026-04-15 14:17 10.73328 122.08093 9305 ft 132 kts 92°
2026-04-15 14:17 10.73254 122.09022 9677 ft 134 kts 92°
2026-04-15 14:18 10.73176 122.09963 10069 ft 133 kts 92°
2026-04-15 14:18 10.73100 122.10904 10441 ft 134 kts 91°
2026-04-15 14:18 10.73024 122.11844 10817 ft 134 kts 91°
2026-04-15 14:18 10.72950 122.12785 11166 ft 135 kts 91°
2026-04-15 14:19 10.72875 122.13744 11500 ft 137 kts 91°
2026-04-15 14:19 10.72797 122.14699 11837 ft 137 kts 91°
2026-04-15 14:19 10.72720 122.15668 12172 ft 138 kts 90°
2026-04-15 14:19 10.72640 122.16646 12501 ft 139 kts 90°
2026-04-15 14:20 10.72564 122.17625 12814 ft 140 kts 90°
2026-04-15 14:20 10.72485 122.18623 13038 ft 147 kts 91°
2026-04-15 14:20 10.72400 122.19730 13067 ft 168 kts 91°
2026-04-15 14:20 10.72302 122.20970 13065 ft 186 kts 91°
2026-04-15 14:21 10.72190 122.22334 13061 ft 200 kts 92°
2026-04-15 14:21 10.72072 122.23774 13055 ft 211 kts 92°
2026-04-15 14:21 10.71950 122.25301 13051 ft 220 kts 92°
2026-04-15 14:21 10.71819 122.26891 13046 ft 226 kts 92°
2026-04-15 14:22 10.71692 122.28488 13041 ft 231 kts 92°
2026-04-15 14:22 10.71557 122.30154 13037 ft 235 kts 92°
2026-04-15 14:22 10.71425 122.31800 13037 ft 237 kts 92°
2026-04-15 14:22 10.71288 122.33495 13033 ft 239 kts 92°
2026-04-15 14:23 10.71155 122.35181 13030 ft 241 kts 92°
2026-04-15 14:23 10.71018 122.36874 13027 ft 242 kts 92°
2026-04-15 14:23 10.70878 122.38577 13023 ft 243 kts 92°
2026-04-15 14:23 10.70741 122.40305 13021 ft 243 kts 92°
2026-04-15 14:24 10.70602 122.42024 13021 ft 244 kts 92°
2026-04-15 14:24 10.70461 122.43726 13024 ft 244 kts 92°
2026-04-15 14:24 10.70323 122.45458 13024 ft 244 kts 92°
2026-04-15 14:24 10.70184 122.47180 13020 ft 245 kts 92°
2026-04-15 14:25 10.70045 122.48897 13017 ft 245 kts 92°
2026-04-15 14:25 10.69904 122.50637 13018 ft 245 kts 92°
2026-04-15 14:25 10.69762 122.52355 13021 ft 244 kts 92°
2026-04-15 14:25 10.69625 122.54069 13022 ft 244 kts 92°
2026-04-15 14:26 10.69485 122.55805 13019 ft 244 kts 92°
2026-04-15 14:26 10.69346 122.57524 13017 ft 244 kts 92°
2026-04-15 14:26 10.69206 122.59251 13014 ft 244 kts 92°
2026-04-15 14:26 10.69066 122.60976 13017 ft 244 kts 92°
2026-04-15 14:27 10.68926 122.62686 13019 ft 244 kts 92°
2026-04-15 14:27 10.68784 122.64412 13026 ft 244 kts 92°
2026-04-15 14:27 10.68646 122.66122 13031 ft 244 kts 92°
2026-04-15 14:27 10.68505 122.67833 13035 ft 244 kts 93°
2026-04-15 14:28 10.68365 122.69564 13037 ft 244 kts 92°
2026-04-15 14:28 10.68225 122.71271 13039 ft 244 kts 92°
2026-04-15 14:28 10.68084 122.73002 13040 ft 245 kts 92°
2026-04-15 14:28 10.67940 122.74730 13039 ft 245 kts 92°
2026-04-15 14:29 10.67800 122.76462 13036 ft 245 kts 92°
2026-04-15 14:29 10.67661 122.78178 13039 ft 245 kts 92°
2026-04-15 14:29 10.67519 122.79917 13042 ft 245 kts 92°
2026-04-15 14:29 10.67378 122.81629 13041 ft 245 kts 92°
2026-04-15 14:30 10.67236 122.83366 13045 ft 245 kts 92°
2026-04-15 14:30 10.67096 122.85077 13044 ft 245 kts 92°
2026-04-15 14:30 10.66953 122.86812 13044 ft 245 kts 92°
2026-04-15 14:30 10.66813 122.88533 13046 ft 246 kts 93°
2026-04-15 14:31 10.66667 122.90269 13052 ft 246 kts 92°
2026-04-15 14:31 10.66524 122.92004 13049 ft 246 kts 92°
2026-04-15 14:31 10.66380 122.93727 13048 ft 246 kts 92°
2026-04-15 14:31 10.66238 122.95474 13050 ft 246 kts 92°
2026-04-15 14:32 10.66098 122.97180 13052 ft 245 kts 92°
2026-04-15 14:32 10.65954 122.98928 13052 ft 245 kts 92°
2026-04-15 14:32 10.65811 123.00652 13052 ft 245 kts 92°
2026-04-15 14:32 10.65671 123.02377 13058 ft 245 kts 92°
2026-04-15 14:33 10.65527 123.04105 13062 ft 245 kts 92°
2026-04-15 14:33 10.65386 123.05825 13067 ft 246 kts 92°
2026-04-15 14:33 10.65241 123.07559 13071 ft 246 kts 93°
2026-04-15 14:33 10.65098 123.09305 13074 ft 246 kts 93°
2026-04-15 14:34 10.64953 123.11022 13075 ft 246 kts 92°
2026-04-15 14:34 10.64808 123.12764 13080 ft 246 kts 92°
2026-04-15 14:34 10.64664 123.14506 13086 ft 246 kts 92°
2026-04-15 14:34 10.64518 123.16238 13087 ft 246 kts 92°
2026-04-15 14:35 10.64375 123.17963 13087 ft 246 kts 92°
2026-04-15 14:35 10.64233 123.19684 13088 ft 245 kts 92°
2026-04-15 14:35 10.64088 123.21426 13093 ft 245 kts 92°
2026-04-15 14:35 10.63945 123.23146 13099 ft 245 kts 92°
2026-04-15 14:36 10.63803 123.24874 13104 ft 245 kts 92°
2026-04-15 14:36 10.63657 123.26601 13099 ft 245 kts 92°
2026-04-15 14:36 10.63513 123.28330 13095 ft 245 kts 92°
2026-04-15 14:36 10.63372 123.30044 13089 ft 245 kts 92°
2026-04-15 14:37 10.63227 123.31773 13083 ft 245 kts 92°
2026-04-15 14:37 10.63153 123.33487 13075 ft 244 kts 90°
2026-04-15 14:37 10.63075 123.35230 13073 ft 244 kts 90°
2026-04-15 14:37 10.63011 123.36935 13065 ft 244 kts 90°
2026-04-15 14:38 10.62946 123.38665 13059 ft 244 kts 90°
2026-04-15 14:38 10.62877 123.40400 13056 ft 244 kts 90°
2026-04-15 14:38 10.62811 123.42118 13049 ft 244 kts 90°
2026-04-15 14:38 10.62747 123.43837 13045 ft 244 kts 90°
2026-04-15 14:39 10.62678 123.45567 13040 ft 244 kts 90°
2026-04-15 14:39 10.62613 123.47302 13036 ft 244 kts 90°
2026-04-15 14:39 10.62548 123.49004 13031 ft 244 kts 90°
2026-04-15 14:39 10.62481 123.50736 13028 ft 244 kts 90°
2026-04-15 14:40 10.62415 123.52455 13028 ft 243 kts 90°
2026-04-15 14:40 10.62347 123.54185 13028 ft 243 kts 90°
2026-04-15 14:40 10.62282 123.55890 13028 ft 244 kts 90°
2026-04-15 14:40 10.62215 123.57624 13029 ft 244 kts 90°
2026-04-15 14:41 10.62147 123.59344 13032 ft 244 kts 90°
2026-04-15 14:41 10.62081 123.61060 13030 ft 244 kts 90°
2026-04-15 14:41 10.62012 123.62781 13033 ft 244 kts 90°
2026-04-15 14:41 10.61945 123.64517 13033 ft 244 kts 89°
2026-04-15 14:42 10.61877 123.66257 13035 ft 244 kts 90°
2026-04-15 14:42 10.61811 123.67958 13036 ft 244 kts 90°
2026-04-15 14:42 10.61744 123.69692 13040 ft 244 kts 90°
2026-04-15 14:42 10.61675 123.71411 13040 ft 244 kts 90°
2026-04-15 14:43 10.61608 123.73142 13039 ft 244 kts 89°
2026-04-15 14:43 10.61541 123.74858 13044 ft 243 kts 90°
2026-04-15 14:43 10.61473 123.76580 13045 ft 243 kts 90°
2026-04-15 14:43 10.61407 123.78299 13048 ft 243 kts 90°
2026-04-15 14:44 10.61339 123.80005 13048 ft 243 kts 90°
2026-04-15 14:44 10.61270 123.81731 13051 ft 243 kts 90°
2026-04-15 14:44 10.61200 123.83454 13050 ft 243 kts 90°
2026-04-15 14:44 10.61132 123.85159 13055 ft 243 kts 90°
2026-04-15 14:45 10.61065 123.86880 13056 ft 243 kts 90°
2026-04-15 14:45 10.60994 123.88618 13053 ft 243 kts 90°
2026-04-15 14:45 10.60926 123.90323 13052 ft 243 kts 89°
2026-04-15 14:45 10.60860 123.92034 13052 ft 243 kts 90°
2026-04-15 14:46 10.60790 123.93765 13050 ft 242 kts 90°
2026-04-15 14:46 10.60722 123.95476 13050 ft 242 kts 90°
2026-04-15 14:46 10.60657 123.97170 13050 ft 242 kts 90°
2026-04-15 14:46 10.60586 123.98896 13051 ft 242 kts 90°
2026-04-15 14:47 10.60519 124.00616 13050 ft 242 kts 90°
2026-04-15 14:47 10.60449 124.02308 13048 ft 243 kts 90°
2026-04-15 14:47 10.60380 124.04038 13047 ft 243 kts 90°
2026-04-15 14:47 10.60310 124.05749 13049 ft 243 kts 90°
2026-04-15 14:48 10.60239 124.07458 13049 ft 243 kts 90°
2026-04-15 14:48 10.60169 124.09174 13045 ft 243 kts 90°
2026-04-15 14:48 10.60101 124.10889 13046 ft 243 kts 89°
2026-04-15 14:48 10.60032 124.12606 13046 ft 243 kts 90°
2026-04-15 14:49 10.59963 124.14325 13042 ft 243 kts 90°
2026-04-15 14:49 10.59893 124.16058 13022 ft 244 kts 90°
2026-04-15 14:49 10.59823 124.17776 12991 ft 244 kts 90°
2026-04-15 14:49 10.59753 124.19487 12986 ft 244 kts 90°
2026-04-15 14:50 10.59682 124.21217 12986 ft 243 kts 90°
2026-04-15 14:50 10.59612 124.22934 12984 ft 243 kts 90°
2026-04-15 14:50 10.59544 124.24644 12984 ft 243 kts 90°
2026-04-15 14:50 10.59472 124.26381 12982 ft 244 kts 90°
2026-04-15 14:51 10.59400 124.28087 12981 ft 243 kts 90°
2026-04-15 14:51 10.59383 124.29804 12970 ft 242 kts 80°
2026-04-15 14:51 10.60145 124.31283 12985 ft 237 kts 46°
2026-04-15 14:51 10.61276 124.32513 12988 ft 237 kts 49°
2026-04-15 14:52 10.62377 124.33759 12983 ft 238 kts 47°
2026-04-15 14:52 10.63492 124.35012 12985 ft 238 kts 48°
2026-04-15 14:52 10.64601 124.36262 12983 ft 238 kts 48°
2026-04-15 14:52 10.65721 124.37524 12986 ft 238 kts 48°
2026-04-15 14:53 10.66828 124.38775 12986 ft 238 kts 48°
2026-04-15 14:53 10.67926 124.40013 12986 ft 238 kts 48°
2026-04-15 14:53 10.69035 124.41267 12985 ft 238 kts 48°
2026-04-15 14:53 10.70150 124.42526 12983 ft 239 kts 48°
2026-04-15 14:54 10.71273 124.43793 12987 ft 239 kts 47°
2026-04-15 14:54 10.72380 124.45043 12986 ft 239 kts 47°
2026-04-15 14:54 10.73492 124.46298 12986 ft 239 kts 48°
2026-04-15 14:54 10.74609 124.47561 12986 ft 239 kts 48°
2026-04-15 14:55 10.75714 124.48808 12987 ft 234 kts 47°
2026-04-15 14:55 10.76761 124.49989 12973 ft 214 kts 47°
2026-04-15 14:55 10.77752 124.51105 12692 ft 210 kts 47°
2026-04-15 14:55 10.78719 124.52197 12408 ft 207 kts 48°
2026-04-15 14:56 10.79683 124.53287 12126 ft 204 kts 48°
2026-04-15 14:56 10.80621 124.54347 11855 ft 202 kts 48°
2026-04-15 14:56 10.81571 124.55420 11583 ft 200 kts 47°
2026-04-15 14:56 10.82491 124.56461 11323 ft 199 kts 48°
2026-04-15 14:57 10.83414 124.57503 11063 ft 197 kts 48°
2026-04-15 14:57 10.84332 124.58540 10803 ft 196 kts 48°
2026-04-15 14:57 10.85236 124.59563 10544 ft 195 kts 48°
2026-04-15 14:57 10.86148 124.60593 10286 ft 194 kts 48°
2026-04-15 14:58 10.87038 124.61599 10049 ft 192 kts 48°
2026-04-15 14:58 10.87924 124.62601 9849 ft 189 kts 48°
2026-04-15 14:58 10.88812 124.63607 9605 ft 188 kts 48°
2026-04-15 14:58 10.89682 124.64590 9367 ft 187 kts 48°
2026-04-15 14:59 10.90554 124.65579 9134 ft 186 kts 48°
2026-04-15 14:59 10.91417 124.66559 8902 ft 186 kts 48°
2026-04-15 14:59 10.92277 124.67535 8674 ft 186 kts 48°
2026-04-15 14:59 10.93139 124.68511 8444 ft 186 kts 48°
2026-04-15 15:00 10.94007 124.69495 8214 ft 185 kts 48°
2026-04-15 15:00 10.94564 124.70622 8179 ft 175 kts 79°
2026-04-15 15:00 10.94662 124.71806 8180 ft 165 kts 84°
2026-04-15 15:00 10.94669 124.72953 8171 ft 158 kts 89°
2026-04-15 15:01 10.94629 124.74048 8161 ft 151 kts 90°
2026-04-15 15:01 10.94573 124.75097 8136 ft 147 kts 90°
2026-04-15 15:01 10.94510 124.76129 8058 ft 144 kts 90°
2026-04-15 15:01 10.94443 124.77156 7946 ft 145 kts 90°
2026-04-15 15:02 10.94374 124.78179 7808 ft 146 kts 91°
2026-04-15 15:02 10.94305 124.79225 7649 ft 149 kts 91°
2026-04-15 15:02 10.94233 124.80285 7479 ft 152 kts 91°
2026-04-15 15:02 10.94158 124.81382 7287 ft 156 kts 91°
2026-04-15 15:03 10.94082 124.82491 7090 ft 160 kts 91°
2026-04-15 15:03 10.94002 124.83646 6882 ft 164 kts 91°
2026-04-15 15:03 10.93922 124.84815 6667 ft 167 kts 91°
2026-04-15 15:03 10.93840 124.86004 6447 ft 170 kts 91°
2026-04-15 15:04 10.93755 124.87210 6221 ft 172 kts 91°
2026-04-15 15:04 10.93672 124.88401 6060 ft 162 kts 91°
2026-04-15 15:04 10.93594 124.89520 5829 ft 157 kts 91°
2026-04-15 15:04 10.93519 124.90616 5611 ft 152 kts 91°
2026-04-15 15:05 10.93446 124.91672 5409 ft 148 kts 91°
2026-04-15 15:05 10.93373 124.92712 5216 ft 144 kts 90°
2026-04-15 15:05 10.93305 124.93716 5033 ft 141 kts 91°
2026-04-15 15:05 10.93237 124.94697 4858 ft 137 kts 90°
2026-04-15 15:06 10.93106 124.96603 4518 ft 131 kts 90°
2026-04-15 15:06 10.93044 124.97512 4355 ft 128 kts 90°
2026-04-15 15:06 10.92983 124.98408 4199 ft 125 kts 90°
2026-04-15 15:07 10.92921 124.99287 4048 ft 123 kts 90°
2026-04-15 15:07 10.92995 125.00103 3974 ft 109 kts 59°
2026-04-15 15:07 10.93538 125.00558 3878 ft 102 kts 18°
2026-04-15 15:07 10.94254 125.00706 3707 ft 104 kts 12°
2026-04-15 15:08 10.94968 125.00822 3574 ft 103 kts 10°
2026-04-15 15:08 10.95691 125.00913 3491 ft 106 kts
2026-04-15 15:08 10.96433 125.00986 3420 ft 107 kts
2026-04-15 15:08 10.97181 125.01047 3330 ft 107 kts
2026-04-15 15:09 10.97924 125.01103 3226 ft 106 kts
2026-04-15 15:09 10.98661 125.01156 3120 ft 104 kts
2026-04-15 15:09 10.99386 125.01205 3016 ft 103 kts
2026-04-15 15:09 11.00094 125.01253 2908 ft 101 kts
2026-04-15 15:10 11.00804 125.01302 2792 ft 99 kts
2026-04-15 15:10 11.01487 125.01350 2763 ft 102 kts
2026-04-15 15:10 11.02234 125.01402 2642 ft 111 kts
2026-04-15 15:10 11.03022 125.01456 2565 ft 113 kts
2026-04-15 15:11 11.03757 125.01500 2525 ft 99 kts
2026-04-15 15:11 11.04422 125.01544 2487 ft 94 kts
2026-04-15 15:11 11.05100 125.01592 2514 ft 99 kts
2026-04-15 15:11 11.05812 125.01643 2535 ft 104 kts
2026-04-15 15:12 11.06544 125.01689 2539 ft 105 kts
2026-04-15 15:12 11.07283 125.01737 2539 ft 105 kts
2026-04-15 15:12 11.08035 125.01788 2495 ft 109 kts
2026-04-15 15:12 11.08798 125.01839 2411 ft 110 kts
2026-04-15 15:13 11.09549 125.01889 2280 ft 104 kts
2026-04-15 15:13 11.10266 125.01935 2160 ft 100 kts
2026-04-15 15:13 11.10957 125.01983 2048 ft 99 kts
2026-04-15 15:13 11.11645 125.02028 1940 ft 98 kts
2026-04-15 15:14 11.12333 125.02076 1827 ft 99 kts
2026-04-15 15:14 11.13022 125.02123 1714 ft 99 kts
2026-04-15 15:14 11.13721 125.02171 1599 ft 100 kts
2026-04-15 15:14 11.14418 125.02218 1479 ft 101 kts
2026-04-15 15:15 11.15131 125.02265 1349 ft 102 kts
2026-04-15 15:15 11.15849 125.02313 1217 ft 103 kts
2026-04-15 15:15 11.16563 125.02361 1087 ft 103 kts
2026-04-15 15:15 11.17293 125.02410 948 ft 104 kts
2026-04-15 15:16 11.18015 125.02459 806 ft 105 kts
2026-04-15 15:16 11.18749 125.02512 658 ft 105 kts
2026-04-15 15:16 11.19479 125.02586 519 ft 104 kts
2026-04-15 15:16 11.20205 125.02627 338 ft 100 kts
2026-04-15 15:17 11.20890 125.02664 176 ft 97 kts
2026-04-15 15:17 11.21548 125.02694 69 ft 89 kts
2026-04-15 15:17 11.22129 125.02737 15 ft 77 kts
2026-04-15 15:17 11.22489 125.02763 12 ft 10 kts
2026-04-15 15:18 11.22541 125.02756 13 ft 6 kts 345°
2026-04-15 15:18 11.22565 125.02731 13 ft 6 kts 285°
2026-04-15 15:18 11.22567 125.02701 13 ft 3 kts 274°
2026-04-15 15:18 11.22590 125.02679 14 ft 6 kts 17°
2026-04-15 15:19 11.22645 125.02686 14 ft 9 kts 354°
2026-04-15 15:19 11.22674 125.02654 15 ft 8 kts 304°
2026-04-15 15:19 11.22680 125.02645 15 ft 0 kts 306°